Regional Weather Roundup
Issued by NWS Upton, NY

Home | Current Version | Previous Version | Text Only | Print | Product List | Glossary On
Versions: 1 2 3 4 5 6 7 8 9 10 11 12 13 14 15 16 17 18 19 20 21 22 23 24 25 26 27 28 29 30 31 32 33 34 35 36 37 38 39 40 41 42 43 44 45 46 47 48 49 50
000
ASUS41 KOKX 251109
RWROKX

REGIONAL WEATHER ROUNDUP
NATIONAL WEATHER SERVICE NEW YORK NY
700 AM EDT MON SEP 25 2017

NOTE: "FAIR" INDICATES FEW OR NO CLOUDS BELOW 12,000 FEET WITH NO
SIGNIFICANT WEATHER AND/OR OBSTRUCTIONS TO VISIBILITY.

NYZ071-072-176-178-NJZ106-104-251200-
NEW YORK CITY METRO AREA

CITY           SKY/WX    TMP DP  RH WIND       PRES   REMARKS
Central Park   CLEAR     72  66  81 NE3       30.07R
Bronx Bot Gard   N/A     68  63  83 NE2       30.05R
LaGuardia APRT PTCLDY    73  66  78 NE6       30.04R
Kennedy INTL   PTCLDY    70  64  81 CALM      30.06R
Breezy Point     N/A     70 N/A N/A SE2         N/A
Newark/Liberty PTCLDY    73  66  78 NE6       30.04R
Teterboro      CLEAR     71  66  84 CALM      30.04R
$$

NYZ177-179-078>081-251200-
LONG ISLAND NEW YORK

CITY           SKY/WX    TMP DP  RH WIND       PRES   REMARKS
Jones Beach      N/A     70 N/A N/A CALM        N/A
Matinecock PT    N/A     70 N/A N/A SE2         N/A
Farmingdale    CLEAR     67  63  87 CALM      30.06R
MacArthur/ISP  CLEAR     65  62  90 CALM      30.05R
Shirley        CLEAR     64  62  93 CALM      30.06R
Mt Sinai Harb    N/A     66 N/A N/A MISG        N/A
Westhampton    CLEAR     58  55  90 CALM      30.07R
East Hampton   FAIR      57  56  97 CALM      30.04S
Montauk          N/A     63  61  93 CALM      30.06R
$$

NYZ052-065-067-251200-
HUDSON VALLEY

CITY           SKY/WX    TMP DP  RH WIND       PRES   REMARKS
White Plains   CLEAR     68  65  90 CALM      30.06R
Larchmont Harb   N/A     68 N/A N/A CALM        N/A
Croton On Huds   N/A     68 N/A N/A CALM        N/A
Newburgh       CLEAR     66  66 100 CALM      30.08R
Montgomery     PTCLDY    60  60 100 CALM      30.07R FOG
Poughkeepsie   PTCLDY    62  60  93 CALM      30.06R
Albany         PTCLDY    65  63  93 CALM      30.09R
$$

NJZ001-105-106-008-010-013-015-019>022-104-251200-
NEW JERSEY

CITY           SKY/WX    TMP DP  RH WIND       PRES   REMARKS
Newark/Liberty PTCLDY    73  66  78 NE6       30.04R
Teterboro      CLEAR     71  66  84 CALM      30.04R
Caldwell       CLEAR     65  65 100 CALM      30.06R
Somerville     NOT AVBL
Linden         FAIR      70  65  84 CALM      30.04
Perth Amboy      N/A     70 N/A N/A MISG        N/A
Sussex         CLEAR     61  60  97 CALM      30.08R
Andover          N/A     62  62 100 CALM      30.08R
Trenton        CLEAR     67  66  97 NW5       30.05R
Millville      CLEAR     63  62  97 CALM      30.05R FOG
Atlantic City  CLEAR     62  60  93 E3        30.05R
Wrightstown    CLEAR     62  60  95 CALM      30.03R
Toms River     NOT AVBL
Belmar         CLEAR     64  62  93 CALM      30.07R
$$

PAZ047>061-062-071-251200-
EASTERN PENNSYLVANIA

CITY           SKY/WX    TMP DP  RH WIND       PRES   REMARKS
Philadelphia   PTCLDY    69  66  90 CALM      30.05R
Allentown      CLEAR     65  63  93 CALM      30.07R
Scranton       CLEAR     65  63  93 E5        30.11R
$$

CTZ002-004>006-009-010-012-RIZ004-006-007-MAZ004-011-015-251200-
SOUTHERN NEW ENGLAND
 IN CT

CITY           SKY/WX    TMP DP  RH WIND       PRES   REMARKS
Bradley INTL   CLEAR     67  65  93 N3        30.06R
Hartford       CLEAR     66  65  96 CALM      30.06R
Danbury        CLEAR     64  62  93 CALM      30.08R FOG
Wtrbury/Oxford CLEAR     72  65  78 NE8       30.07S
Norwalk Harbor   N/A     68 N/A N/A CALM        N/A
Bridgeport     CLEAR     67  65  93 CALM      30.04R
Meriden        CLEAR     63  62  97 CALM      30.06R
New Haven      CLEAR     67  64  90 CALM      30.04S
Chester        FAIR      63  63 100 N3        30.06S
Groton         CLEAR     61  59  93 CALM      30.05R
Wilimantic     CLEAR     63  62  97 CALM      30.07R

 IN RI

CITY           SKY/WX    TMP DP  RH WIND       PRES   REMARKS
Providence     CLEAR     64  63  96 CALM      30.07R
Block Island   CLEAR     65  62  90 CALM      30.06R
Westerly       CLEAR     62  60  93 N3        30.06R
 IN MA

CITY           SKY/WX    TMP DP  RH WIND       PRES   REMARKS
Boston         PTCLDY    65  64  97 CALM      30.07R
Worcester      CLEAR     72  64  76 N7        30.10R
Westfield      CLEAR     65  65 100 N5        30.07R
Provincetown   CLEAR     63  63 100 CALM      30.07R FOG
Nantucket      FOG       61  61 100 N8        30.06S VSB 1/4
$$

ANZ330-335-338-340-345-350-353-355-251200-
COASTAL MARINE OBSERVATIONS


STATION/POSITION TIME  SKY/WX   TEMP    WIND        PRES    VSBY  WAVE
                                AIR SEA DIR/SP/G                  HT/PER
                 (UTC)          (F)     (DEG/KT/KT) (MB)    (MI)  (FT/S)
NY HARB ENTRANCE 1050            72 71  170/  4/  6 1016.8          4/11
20 S FIRE ISLAND 0950            69 69  160/  4/  6 1017.1          4/12
GREAT SOUTH BAY  1015            70 72  110/  4/  6   N/A
23 SSW MONTAUK P 0950            65 66              1017.3          5/12
15 E BARNEGAT LI 1030               71                N/A           4/10
HUDSON CANYON    0950            66 69   90/  8/  8 1016.5          7/14
KINGS POINT      1030            69 72  170/  2/  3 1018.1
EXECUTION ROCKS  1045            71     220/  4/  4   N/A
WESTERN LI SOUND NOT AVBL
CENTRAL LI SOUND 1030            69      60/  8/  8   N/A           0
EASTERN LI SOUND NOT AVBL
ROBBINS REEF     1030            72      CALM  /  2 1017.7
$$


>>>>>>>>>>>>>>>>>>>>>>>>>>>> KEY <<<<<<<<<<<<<<<<<<<<<<<<<<<
>                                                          <
>     SKY/WX - Sky Condition/Present Weather               <
>     TMP    - Temperature in Fahrenheit                   <
>     DP     - Dew Point in Fahrenheit                     <
>     RH     - Relative Humidity in Percent                <
>     WIND   - Direction (from) and Speed in MPH           <
>     PRES   - Mean Sea Level Pressure (inches of Hg)      <
>     WCI    - Wind Chill Index                            <
>     VSB    - VISIBILITY IN MILES                         <
>     HX     - HEAT INDEX                                  <
>     TC     - TEMPERATURE IN CELSIUS                      <
>     VRB    - VARIABLE WIND DIRECTION                     <
>                                                          <
>>>>>>>>>>>>>>>>>>>>>>>>>>>> KEY <<<<<<<<<<<<<<<<<<<<<<<<<<<



USA.gov is the U.S. government's official web portal to all federal, state and local government web resources and services.